OK1CMJ-5 Weather Reports


time (UTC)temp
C
wind
direction
speed
KPH
gust
KPH
rain 1hr
cm
rain 24hr
cm
rain mn
cm
humidity
%
barometer
mb
20260902013850 10 314 0.0 1.6 0.00 0.05 0.00 74 1024.2
20260902012950 10 0 0.0 0.0 0.00 0.05 0.00 74 1024.1
20260902012051 10 0 0.0 0.0 0.00 0.05 0.00 74 1024.0
20260902011150 10 0 0.0 0.0 0.00 0.10 0.00 73 1023.9
20260902010250 10 0 0.0 0.0 0.00 0.10 0.00 73 1024.0
20260902005350 10 0 0.0 0.0 0.00 0.10 0.00 73 1024.0
20260902004450 10 270 0.0 3.2 0.00 0.10 0.00 73 1024.0
20260902003550 10 270 0.0 3.2 0.00 0.10 0.00 73 1024.0
20260902002650 10 0 0.0 0.0 0.00 0.10 0.00 72 1024.1
20260902001750 10 0 0.0 0.0 0.00 0.10 0.00 72 1024.1
20260902000850 10 1 0.0 1.6 0.00 0.10 0.00 71 1024.1
20260901235950 10 1 0.0 3.2 0.00 0.10 0.00 71 1024.0
20260901235050 10 1 0.0 3.2 0.00 0.10 0.00 70 1024.1
20260901234150 10 0 0.0 0.0 0.00 0.10 0.00 69 1024.1
20260901233250 10 1 0.0 1.6 0.00 0.10 0.00 68 1024.2
20260901232350 10 1 0.0 1.6 0.00 0.10 0.00 68 1024.3
20260901231450 10 1 0.0 1.6 0.00 0.10 0.00 68 1024.1
20260901230550 10 0 0.0 0.0 0.00 0.10 0.00 67 1024.2
20260901225650 10 1 0.0 3.2 0.00 0.10 0.00 67 1024.1
20260901224750 10 0 0.0 0.0 0.00 0.10 0.00 66 1024.2
20260901223850 10 0 0.0 0.0 0.00 0.10 0.00 66 1024.1
20260901222950 10 0 0.0 0.0 0.00 0.10 0.00 66 1024.3
20260901222050 11 0 0.0 0.0 0.00 0.10 0.00 65 1024.3
20260901221150 11 0 0.0 0.0 0.00 0.10 0.00 66 1024.4
20260901220250 11 1 0.0 1.6 0.00 0.10 0.00 65 1024.3
20260901215349 11 1 0.0 3.2 0.00 0.10 0.10 66 1024.4
20260901214450 11 1 0.0 3.2 0.00 0.10 0.10 65 1024.4
20260901213549 11 1 0.0 3.2 0.00 0.10 0.10 65 1024.4
20260901212650 11 1 0.0 3.2 0.05 0.10 0.10 64 1024.1
20260901211750 11 277 0.0 3.2 0.05 0.10 0.10 64 1024.4
20260901210850 11 352 0.0 3.2 0.05 0.10 0.10 63 1024.4
20260901205949 11 343 1.6 3.2 0.05 0.10 0.10 61 1024.1
20260901205050 11 287 0.0 3.2 0.05 0.10 0.10 60 1024.1
20260901204149 11 270 0.0 3.2 0.05 0.10 0.10 59 1024.0
20260901203250 11 270 0.0 3.2 0.00 0.03 0.03 57 1024.1
20260901202349 11 280 0.0 3.2 0.00 0.03 0.03 56 1023.9
20260901201450 11 314 0.0 1.6 0.00 0.03 0.03 55 1024.0
20260901200549 11 314 0.0 1.6 0.00 0.03 0.03 52 1024.0
20260901195650 11 314 0.0 3.2 0.00 0.03 0.03 51 1023.9
20260901194749 11 314 0.0 3.2 0.00 0.03 0.03 49 1024.0
20260901193850 12 314 0.0 3.2 0.00 0.03 0.03 49 1023.9
20260901192949 12 314 0.0 3.2 0.00 0.03 0.03 49 1024.0
20260901192050 12 1 0.0 3.2 0.00 0.03 0.03 48 1024.0
20260901191150 12 181 0.0 3.2 0.00 0.03 0.03 46 1023.9
20260901190249 12 181 0.0 3.2 0.00 0.05 0.03 42 1023.8
20260901184450 13 330 0.0 1.6 0.00 0.05 0.03 40 1023.6
20260901183549 13 276 0.0 1.6 0.00 0.05 0.03 39 1023.6
20260901182650 13 270 0.0 3.2 0.00 0.05 0.03 36 1023.4
20260901181750 14 285 0.0 3.2 0.00 0.05 0.03 34 1023.4
20260901180849 15 270 0.0 1.6 0.00 0.05 0.03 31 1023.2
20260901175950 15 270 0.0 1.6 0.00 0.05 0.03 29 1023.1
20260901175049 16 270 0.0 1.6 0.00 0.05 0.03 26 1023.1
20260901174150 16 270 0.0 1.6 0.00 0.05 0.03 23 1023.0
20260901173250 17 270 0.0 1.6 0.00 0.05 0.03 20 1022.9
20260901172349 17 0 0.0 0.0 0.00 0.05 0.03 18 1023.1
20260901171450 18 270 0.0 1.6 0.00 0.05 0.03 17 1023.0
20260901170549 19 296 0.0 3.2 0.00 0.05 0.03 13 1022.9
20260901164749 20 307 0.0 6.4 0.00 0.05 0.03 12 1023.0
20260901163850 20 311 1.6 6.4 0.00 0.05 0.03 11 1023.0
20260901162949 20 347 0.0 6.4 0.00 0.05 0.03 10 1023.2
20260901162050 21 310 3.2 6.4 0.00 0.05 0.03 10 1023.2
20260901161149 21 296 3.2 4.8 0.00 0.05 0.03 10 1023.2
20260901160249 22 307 0.0 6.4 0.00 0.05 0.03 10 1023.1
20260901155349 23 299 1.6 9.7 0.00 0.05 0.03 10 1023.1
20260901154450 23 295 3.2 6.4 0.00 0.05 0.03 10 1023.0
20260901153549 23 349 1.6 8.0 0.00 0.05 0.03 10 1023.1
20260901152649 22 312 0.0 6.4 0.00 0.05 0.03 10 1023.2
20260901151749 23 292 0.0 11.3 0.00 0.05 0.03 10 1023.1
20260901150849 24 293 1.6 6.4 0.00 0.05 0.03 10 1023.1
20260901145949 23 324 1.6 6.4 0.00 0.05 0.03 10 1023.1
20260901145050 21 315 0.0 6.4 0.00 0.05 0.03 10 1023.3
20260901144149 21 314 1.6 8.0 0.00 0.05 0.03 14 1023.2
20260901143249 21 306 1.6 8.0 0.00 0.05 0.03 13 1023.2
20260901142349 21 299 1.6 11.3 0.00 0.05 0.03 12 1023.2
20260901141449 21 302 1.6 8.0 0.00 0.05 0.03 10 1023.2
20260901140550 21 294 3.2 12.9 0.00 0.05 0.03 11 1023.4
20260901135650 21 290 6.4 12.9 0.00 0.05 0.03 10 1023.4
20260901134750 22 298 1.6 12.9 0.00 0.05 0.03 10 1023.6
20260901133849 24 317 3.2 12.9 0.00 0.05 0.03 10 1023.3
20260901132050 22 246 1.6 9.7 0.00 0.05 0.03 10 1023.5
20260901131149 23 290 1.6 11.3 0.00 0.05 0.03 10 1023.4
20260901130249 25 270 3.2 11.3 0.00 0.05 0.03 10 1023.5
20260901125349 24 295 3.2 12.9 0.00 0.05 0.03 10 1023.4
20260901124450 24 325 1.6 12.9 0.00 0.05 0.03 10 1023.6
20260901123549 23 1 0.0 11.3 0.00 0.05 0.03 10 1023.7
20260901122650 23 338 3.2 6.4 0.00 0.05 0.03 10 1023.7
20260901121749 20 303 0.0 4.8 0.00 0.05 0.03 12 1023.8
20260901120849 20 181 0.0 6.4 0.00 0.05 0.03 14 1023.9
20260901115949 20 357 0.0 8.0 0.00 0.05 0.03 14 1023.9
20260901115049 20 311 1.6 8.0 0.00 0.05 0.03 14 1024.0
20260901114149 21 314 0.0 6.4 0.00 0.05 0.03 13 1024.1
20260901112349 21 314 0.0 12.9 0.00 0.05 0.03 12 1024.1
20260901111449 23 304 1.6 16.1 0.00 0.05 0.03 10 1024.0
20260901110550 23 283 3.2 9.7 0.00 0.05 0.03 10 1024.0
20260901105649 22 319 1.6 14.5 0.00 0.05 0.03 11 1024.0
20260901104749 22 341 3.2 12.9 0.00 0.05 0.03 13 1023.9
20260901103849 21 347 4.8 12.9 0.00 0.05 0.03 13 1024.0
20260901102949 21 346 1.6 17.7 0.00 0.05 0.03 14 1024.1
20260901102049 21 310 3.2 17.7 0.00 0.05 0.03 12 1023.9
20260901101149 21 313 3.2 8.0 0.00 0.05 0.03 14 1024.0
20260901100249 21 330 3.2 12.9 0.00 0.05 0.03 17 1023.9
20260901094449 21 306 3.2 17.7 0.00 0.05 0.03 17 1023.9
20260901093549 21 318 3.2 12.9 0.00 0.05 0.03 18 1023.8
20260901092649 21 300 0.0 11.3 0.00 0.05 0.03 17 1024.1
20260901091749 21 285 0.0 20.9 0.00 0.05 0.03 17 1024.0
20260901085949 20 321 1.6 14.5 0.00 0.05 0.03 21 1023.8
20260901085049 20 342 4.8 14.5 0.00 0.05 0.03 20 1024.0
20260901084149 20 325 1.6 11.3 0.00 0.05 0.03 19 1024.0
20260901083249 20 302 3.2 12.9 0.00 0.05 0.03 22 1023.8
20260901082349 20 316 3.2 19.3 0.00 0.05 0.03 22 1023.6
20260901081450 20 323 3.2 16.1 0.00 0.10 0.03 22 1023.9
20260901080549 20 204 3.2 17.7 0.00 0.10 0.03 23 1023.6
20260901075649 21 330 6.4 17.7 0.00 0.10 0.03 21 1023.6
20260901074749 20 327 6.4 16.1 0.00 0.10 0.03 25 1023.4
20260901073849 20 333 3.2 16.1 0.00 0.10 0.03 29 1023.3
20260901072949 19 307 6.4 17.7 0.00 0.10 0.03 29 1023.4
20260901072049 19 303 3.2 17.7 0.00 0.10 0.03 30 1023.1
20260901071149 19 289 3.2 17.7 0.00 0.10 0.03 32 1023.0
20260901070249 18 266 6.4 16.1 0.00 0.10 0.03 35 1023.2
20260901065349 18 288 1.6 14.5 0.00 0.10 0.03 36 1023.2
20260901064449 18 303 1.6 14.5 0.00 0.13 0.03 38 1023.0
20260901063549 18 302 3.2 14.5 0.00 0.18 0.03 40 1023.0
20260901062649 17 306 3.2 17.7 0.00 0.28 0.03 41 1023.0
20260901061749 17 303 3.2 12.9 0.00 0.33 0.03 42 1022.9
20260901060849 18 278 3.2 12.9 0.00 0.53 0.03 44 1022.9
20260901055949 17 294 3.2 14.5 0.00 0.53 0.03 46 1022.9
20260901055049 17 327 3.2 12.9 0.00 0.84 0.03 48 1022.7
20260901054149 17 329 3.2 9.7 0.00 1.02 0.03 50 1022.7
20260901053249 17 319 1.6 16.1 0.00 1.02 0.03 53 1022.7
20260901051449 15 317 4.8 12.9 0.00 1.02 0.03 62 1022.7
20260901050549 14 314 1.6 8.0 0.00 1.02 0.03 66 1022.6
20260901044749 14 320 1.6 6.4 0.00 1.02 0.03 67 1022.5
20260901043849 13 314 0.0 6.4 0.00 1.02 0.03 68 1022.5
20260901042949 13 316 1.6 6.4 0.00 1.02 0.03 68 1022.6
20260901041149 13 341 0.0 9.7 0.00 1.02 0.03 67 1022.4
20260901040249 13 331 1.6 8.0 0.00 1.02 0.03 67 1022.3
20260901034449 13 322 1.6 9.7 0.00 1.02 0.03 66 1022.4
20260901033549 13 309 3.2 9.7 0.00 1.02 0.03 66 1022.2
20260901031749 13 305 1.6 6.4 0.00 1.02 0.03 64 1022.1
20260901030849 13 337 1.6 6.4 0.00 1.02 0.03 63 1022.3
20260901025949 13 313 1.6 6.4 0.00 1.02 0.03 62 1022.1
20260901025049 13 302 0.0 6.4 0.00 1.02 0.03 61 1022.1
20260901024149 13 293 3.2 6.4 0.00 1.02 0.03 59 1022.2
20260901023249 13 300 3.2 6.4 0.00 1.02 0.03 57 1022.2
20260901022349 13 314 3.2 6.4 0.00 1.02 0.03 56 1022.2
20260901021449 13 314 0.0 3.2 0.03 1.02 0.03 54 1022.1
20260901020549 13 202 0.0 3.2 0.03 1.02 0.03 54 1022.1